TimeEDT,TemperatureF,Dew PointF,Humidity,Sea Level PressureIn,VisibilityMPH,Wind Direction,Wind SpeedMPH,Gust SpeedMPH,PrecipitationIn,Events,Conditions,WindDirDegrees,DateUTC
12:15 AM,51.8,37.4,58,30.23,10.0,ENE,3.5,-,N/A,,Clear,60,2013-04-23 04:15:00
12:55 AM,51.8,35.6,54,30.23,7.0,ENE,3.5,-,N/A,,Clear,70,2013-04-23 04:55:00
1:15 AM,51.8,33.8,50,30.23,7.0,ENE,3.5,-,N/A,,Clear,60,2013-04-23 05:15:00
1:35 AM,48.2,33.8,58,30.22,7.0,NE,3.5,-,N/A,,Clear,50,2013-04-23 05:35:00
1:55 AM,48.2,33.8,58,30.22,7.0,NE,3.5,-,N/A,,Clear,50,2013-04-23 05:55:00
2:15 AM,46.4,35.6,66,30.22,7.0,Calm,Calm,-,N/A,,Clear,0,2013-04-23 06:15:00
2:35 AM,46.4,35.6,66,30.21,10.0,Calm,Calm,-,N/A,,Clear,0,2013-04-23 06:35:00
3:15 AM,46.4,33.8,62,30.20,10.0,NE,4.6,-,N/A,,Clear,50,2013-04-23 07:15:00
3:35 AM,46.4,33.8,62,30.20,7.0,NE,4.6,-,N/A,,Clear,50,2013-04-23 07:35:00
3:55 AM,46.4,33.8,62,30.20,7.0,NE,3.5,-,N/A,,Clear,50,2013-04-23 07:55:00
4:15 AM,46.4,33.8,62,30.20,10.0,ENE,4.6,-,N/A,,Clear,60,2013-04-23 08:15:00
4:35 AM,46.4,33.8,62,30.20,10.0,NE,3.5,-,N/A,,Clear,40,2013-04-23 08:35:00
4:55 AM,44.6,35.6,71,30.21,10.0,NE,3.5,-,N/A,,Clear,40,2013-04-23 08:55:00
5:15 AM,42.8,37.4,81,30.20,7.0,NNE,4.6,-,N/A,,Clear,30,2013-04-23 09:15:00
5:35 AM,42.8,37.4,81,30.20,7.0,NNE,3.5,-,N/A,,Clear,30,2013-04-23 09:35:00
6:15 AM,42.8,37.4,81,30.21,7.0,NE,4.6,-,N/A,,Clear,40,2013-04-23 10:15:00
6:35 AM,41.0,37.4,87,30.21,7.0,NNE,3.5,-,N/A,,Clear,20,2013-04-23 10:35:00
6:55 AM,42.8,37.4,81,30.22,10.0,Calm,Calm,-,N/A,,Clear,0,2013-04-23 10:55:00
7:15 AM,42.8,37.4,81,30.23,7.0,Calm,Calm,-,N/A,,Clear,0,2013-04-23 11:15:00
7:35 AM,42.8,37.4,81,30.23,7.0,NNE,3.5,-,N/A,,Clear,30,2013-04-23 11:35:00
7:55 AM,44.6,35.6,71,30.22,7.0,NE,3.5,-,N/A,,Clear,40,2013-04-23 11:55:00
8:15 AM,46.4,35.6,66,30.23,7.0,NNE,3.5,-,N/A,,Clear,30,2013-04-23 12:15:00
8:35 AM,51.8,37.4,58,30.23,7.0,ENE,4.6,-,N/A,,Clear,60,2013-04-23 12:35:00
8:55 AM,53.6,39.2,58,30.23,7.0,NE,3.5,-,N/A,,Clear,50,2013-04-23 12:55:00
9:15 AM,53.6,37.4,54,30.24,5.0,NE,5.8,-,N/A,,Haze,40,2013-04-23 13:15:00
9:35 AM,55.4,39.2,54,30.25,7.0,NNE,5.8,-,N/A,,Clear,30,2013-04-23 13:35:00
9:55 AM,57.2,41.0,55,30.24,7.0,East,8.1,-,N/A,,Clear,80,2013-04-23 13:55:00
10:15 AM,59.0,41.0,51,30.24,7.0,ENE,6.9,-,N/A,,Clear,60,2013-04-23 14:15:00
10:35 AM,59.0,41.0,51,30.24,7.0,ENE,5.8,-,N/A,,Clear,60,2013-04-23 14:35:00
10:55 AM,60.8,42.8,52,30.24,7.0,ENE,5.8,-,N/A,,Clear,60,2013-04-23 14:55:00
11:15 AM,60.8,41.0,48,30.24,7.0,North,6.9,-,N/A,,Clear,10,2013-04-23 15:15:00
11:35 AM,60.8,41.0,48,30.24,10.0,Calm,Calm,-,N/A,,Clear,0,2013-04-23 15:35:00
11:55 AM,62.6,41.0,45,30.23,7.0,ENE,6.9,-,N/A,,Clear,60,2013-04-23 15:55:00
12:15 PM,62.6,41.0,45,30.23,7.0,ENE,5.8,-,N/A,,Clear,60,2013-04-23 16:15:00
12:35 PM,64.4,41.0,42,30.21,7.0,Calm,Calm,-,N/A,,Clear,0,2013-04-23 16:35:00
12:55 PM,64.4,41.0,42,30.21,10.0,Calm,Calm,-,N/A,,Clear,0,2013-04-23 16:55:00
1:15 PM,64.4,41.0,42,30.20,7.0,Calm,Calm,-,N/A,,Clear,0,2013-04-23 17:15:00
1:35 PM,66.2,41.0,40,30.19,7.0,Calm,Calm,-,N/A,,Clear,0,2013-04-23 17:35:00
1:55 PM,69.8,41.0,35,30.18,7.0,ENE,3.5,-,N/A,,Clear,60,2013-04-23 17:55:00
2:15 PM,69.8,39.2,33,30.17,7.0,NW,4.6,-,N/A,,Clear,320,2013-04-23 18:15:00
2:35 PM,69.8,41.0,35,30.17,7.0,East,4.6,-,N/A,,Clear,90,2013-04-23 18:35:00
2:55 PM,71.6,41.0,33,30.17,10.0,Calm,Calm,-,N/A,,Clear,0,2013-04-23 18:55:00
3:15 PM,71.6,42.8,35,30.16,7.0,NE,3.5,-,N/A,,Clear,40,2013-04-23 19:15:00
3:35 PM,73.4,42.8,33,30.14,7.0,SSE,4.6,-,N/A,,Clear,160,2013-04-23 19:35:00
3:55 PM,73.4,41.0,31,30.14,10.0,Calm,Calm,-,N/A,,Clear,0,2013-04-23 19:55:00
4:15 PM,73.4,41.0,31,30.13,10.0,South,4.6,-,N/A,,Clear,170,2013-04-23 20:15:00
4:35 PM,73.4,41.0,31,30.13,7.0,Calm,Calm,-,N/A,,Clear,0,2013-04-23 20:35:00
4:55 PM,73.4,41.0,31,30.12,7.0,Calm,Calm,-,N/A,,Clear,0,2013-04-23 20:55:00
5:15 PM,73.4,41.0,31,30.11,10.0,Calm,Calm,-,N/A,,Clear,0,2013-04-23 21:15:00
5:35 PM,73.4,41.0,31,30.11,10.0,East,3.5,-,N/A,,Clear,90,2013-04-23 21:35:00
5:55 PM,73.4,41.0,31,30.11,10.0,Calm,Calm,-,N/A,,Clear,0,2013-04-23 21:55:00
6:15 PM,73.4,41.0,31,30.11,7.0,Calm,Calm,-,N/A,,Clear,0,2013-04-23 22:15:00
6:35 PM,73.4,42.8,33,30.11,7.0,Calm,Calm,-,N/A,,Clear,0,2013-04-23 22:35:00
6:55 PM,73.4,42.8,33,30.11,7.0,Calm,Calm,-,N/A,,Clear,0,2013-04-23 22:55:00
7:15 PM,73.4,44.6,36,30.11,7.0,Calm,Calm,-,N/A,,Clear,0,2013-04-23 23:15:00
7:35 PM,69.8,48.2,46,30.10,7.0,ESE,3.5,-,N/A,,Clear,110,2013-04-23 23:35:00
7:55 PM,68.0,44.6,43,30.11,7.0,ESE,3.5,-,N/A,,Clear,120,2013-04-23 23:55:00
8:15 PM,66.2,44.6,46,30.11,7.0,ESE,3.5,-,N/A,,Clear,110,2013-04-24 00:15:00
8:35 PM,60.8,46.4,59,30.11,10.0,ESE,3.5,-,N/A,,Clear,120,2013-04-24 00:35:00
8:55 PM,60.8,46.4,59,30.11,10.0,Calm,Calm,-,N/A,,Clear,0,2013-04-24 00:55:00
9:15 PM,59.0,46.4,63,30.12,10.0,Calm,Calm,-,N/A,,Clear,0,2013-04-24 01:15:00
9:35 PM,59.0,48.2,67,30.12,7.0,Calm,Calm,-,N/A,,Clear,0,2013-04-24 01:35:00
9:55 PM,59.0,48.2,67,30.13,10.0,Calm,Calm,-,N/A,,Clear,0,2013-04-24 01:55:00
10:15 PM,57.2,50.0,77,30.13,7.0,Calm,Calm,-,N/A,,Clear,0,2013-04-24 02:15:00
10:35 PM,59.0,50.0,72,30.14,7.0,Calm,Calm,-,N/A,,Clear,0,2013-04-24 02:35:00
10:55 PM,57.2,50.0,77,30.14,7.0,Calm,Calm,-,N/A,,Clear,0,2013-04-24 02:55:00
11:15 PM,55.4,48.2,77,30.14,7.0,Calm,Calm,-,N/A,,Clear,0,2013-04-24 03:15:00
11:35 PM,55.4,46.4,72,30.14,7.0,South,3.5,-,N/A,,Clear,170,2013-04-24 03:35:00
11:55 PM,53.6,48.2,82,30.14,10.0,SSE,3.5,-,N/A,,Clear,160,2013-04-24 03:55:00